Regional Weather Roundup
Issued by NWS State College, PA

Home | Current Version | Previous Version | Text Only | Print | Product List | Glossary Off
Versions: 1 2 3 4 5 6 7 8 9 10 11 12 13 14 15 16 17 18 19 20 21 22 23 24 25 26 27 28 29 30 31 32 33 34 35 36 37 38 39 40 41 42 43 44 45 46 47 48 49 50

000
ASUS41 KCTP 182103
RWRCTP

REGIONAL WEATHER ROUNDUP
NATIONAL WEATHER SERVICE STATE COLLEGE PA
500 PM EDT SAT APR 18 2015

Note: "fair" indicates few or no clouds below 12,000 feet with no
significant weather and/or obstructions to visibility.

* = STATION THAT DOES NOT REPORT PRECIPITATION /E.G. RAIN...SNOW...ETC/
    THUNDER OR FOG.

PAZ002>004-007>009-013>016-020>023-029>032-182200-
WESTERN PENNSYLVANIA

CITY           SKY/WX    TMP DP  RH WIND       PRES   REMARKS
ERIE           SUNNY     62  38  40 W7        30.08R
MEADVILLE      SUNNY     69  38  32 NW9       30.07R
FRANKLIN*      PTSUNNY   72  43  35 W12G18    30.07R
NEW CASTLE     FAIR      74  44  34 N10G17    30.05R
BEAVER COUNTY  MOSUNNY   73  43  33 NW8       30.04R
BUTLER*        PTSUNNY   73  43  33 N6        30.05S
PITTSBURGH INT CLOUDY    76  39  26 NW9       30.02S
PITTSBURGH     PTSUNNY   75  34  22 VRB7      30.02R
INDIANA*       MOSUNNY   75  41  29 NW9G17    30.05R
LATROBE        MOSUNNY   73  39  29 NW9       30.03R
WASHINGTON CO* CLOUDY    75  43  31 CALM      30.03F
$$

PAZ004>006-010>012-017>019-024>028-033>037-041-042-045-046-049>053-182200-
CENTRAL PENNSYLVANIA

CITY           SKY/WX    TMP DP  RH WIND       PRES   REMARKS
BRADFORD       SUNNY     69  30  23 W16       30.03R
DUBOIS         SUNNY     75  37  25 N14G22    30.01R
CLEARFIELD     SUNNY     76  37  24 VRB6      29.99R
JOHNSTOWN      MOSUNNY   71  39  31 NW13      30.03R
ALTOONA        SUNNY     75  39  27 W14       30.00R
STATE COLLEGE  MOSUNNY   77  39  25 NW14G21   29.96R
WILLIAMSPORT   MOSUNNY   81  34  18 NW16      29.89S
SELINSGROVE    SUNNY     80  41  24 W8        29.91F
FT INDIANTOWN  MOSUNNY   80  38  22 NW5G16    29.91S
CAPITAL CITY   SUNNY     80  41  24 W6        29.92S
HARRISBURG     MOSUNNY   80  38  22 NW8       29.91S
YORK           SUNNY     80  40  23 W6        29.93S
$$

PAZ038>040-043-044-047-048-054-055-060>062-067>071-182200-
EASTERN PENNSYLVANIA

CITY           SKY/WX    TMP DP  RH WIND       PRES   REMARKS
SCRANTON       MOSUNNY   80  35  19 NW18G26   29.89S
MOUNT POCONO   MOSUNNY   74  33  22 NW10      29.92S
ALLENTOWN      SUNNY     80  40  23 W12       29.89F
QUAKERTOWN*    CLEAR     79  41  25 W7        29.92S
READING        MOSUNNY   80  41  24 NW8       29.90F
LANCASTER      SUNNY     77  43  29 W10       29.92S
COATESVILLE    CLEAR     75  41  29 NW5       29.95S
POTTSTOWN      SUNNY     79  39  23 W10G20    29.92F
BLUE BELL      SUNNY     79  41  25 W7        29.90F
DOYLESTOWN     SUNNY     78  38  23 W10       29.89F
WILLOW GROVE   NOT AVBL
NORTH PHILA    SUNNY     81  37  20 W13       29.92S
PHILADELPHIA   MOSUNNY   80  38  22 SW14      29.91F
$$


USA.gov is the U.S. government's official web portal to all federal, state and local government web resources and services.